Location: Borbetomagus
(49.6328°N, 8.3592°E)
Time: 05:06:48
(UTC+00:00)

Meteor 2-4 Rocket - Pass Details

Date: 19 May 2025
Orbit: 798 x 906 km, 81.2° (Epoch: 14 June)

Event Time Altitude Azimuth Distance (km) Brightness Sun altitude
Exits shadow 22:30:53 36° 158° (SSE) 1,350 4.2 -19.4°
Maximum altitude 22:33:06 59° 96° (E) 1,001 3.9 -19.5°
Drops below altitude 10° 22:38:49 10° 18° (NNE) 2,562 7.1 -19.7°
Sets 22:41:20 0° 15° (NNE) 3,518 8.1 -19.8°
